User: anonymous   Login
Location: Unspecified
(0.0000°N, 0.0000°E)
Time: 04:33:39
(UTC+00:00)
Language:

STARLINK-5462 - Orbit

View from above orbital plane
View from above orbital plane
View from above satellite
View from above satellite

Ground track
Ground track

The orbit is defined by the following mean orbital elements,

1 55674U          26145.50102113 +.00000000 +00000-0 -28656-3 0 00002
2 55674  70.0010 330.6442 0003109 267.7785  92.3018 14.98315001    09
Epoch (UTC): 25 May 2026 12:01:28
Eccentricity: 0.0003109
inclination: 70.0010°
perigee height: 570 km
apogee height: 574 km
right ascension of ascending node: 330.6442°
argument of perigee: 267.7785°
revolutions per day: 14.98315001
mean anomaly at epoch: 92.3018°

The dashed part of the orbit path shows where the satellite is in the earth's shadow,  

DLR